Regional Weather Roundup
Issued by NWS

Home | Current Version | Previous Version | Text Only | Print | Product List | Glossary On
Versions: 1 2 3 4 5 6 7 8 9 10 11 12 13 14 15 16 17 18 19 20 21 22 23 24 25 26 27 28 29 30 31 32 33 34 35 36 37 38 39 40 41 42 43 44 45 46 47 48 49 50
910
ASUS43 KDTX 231610
RWRMI
MICHIGAN HOURLY REGIONAL WEATHER ROUNDUP
NATIONAL WEATHER SERVICE DETROIT/PONTIAC MI
1200 PM EDT SAT JUL 23 2016

NOTE: "FAIR" INDICATES FEW OR NO CLOUDS BELOW 12,000 FEET WITH NO
SIGNIFICANT WEATHER AND/OR OBSTRUCTION TO VISIBILITY.

MIZ047>049-052>055-059>063-066>070-074>076-081>083-231700-
SOUTHEAST LOWER MICHIGAN

CITY           SKY/WX    TMP DP  RH WIND       PRES   REMARKS
ADRIAN         SUNNY     87  69  54 VRB3      30.01R HX  91
ALMA           SUNNY     86  68  53 CALM      30.01S
ANN ARBOR      SUNNY     88  63  43 CALM      30.00R
BAD AXE        SUNNY     85  58  39 NE6       30.01R
CARO           SUNNY     86  68  53 NW5       30.00S
DETROIT CITY   SUNNY     89  61  38 VRB3      29.98S
DETROIT        MOSUNNY   89  63  41 CALM      29.99S HX  90
FLINT          SUNNY     93  63  36 N8        30.00R HX  94
GROSSE ILE     SUNNY     85  65  50 S6        29.98R
HOWELL         SUNNY     86  67  53 CALM      30.01S

CITY           SKY/WX    TMP DP  RH WIND       PRES   REMARKS
JACKSON        SUNNY     86  65  49 CALM      30.01S
LAMBERTVILLE   SUNNY     88  70  55 CALM      29.99S HX  93
LANSING        SUNNY     87  68  52 E3        30.01S HX  90
LAPEER         FAIR      86  67  52 N5        30.01R
MASON          SUNNY     85  69  57 CALM      30.01S
MONROE         SUNNY     85  72  63 MISG      29.98S HX  91
MT. CLEMENS    MOSUNNY   90  59  35 VRB3      29.96S
PONTIAC        MOSUNNY   88  63  43 N9        30.00R
PORT HOPE        N/A     79  65  62 VRB5      29.99R
PORT HURON     SUNNY     86  66  51 W5        29.98S
TRI CITIES     SUNNY     86  68  54 NE6       30.00R
MIDLAND        FAIR      86  63  46 NE3       29.99S
TROY           SUNNY     91  55  29 N5        30.00S
SAGINAW HB     SUNNY     86  68  54 NW3       29.99S
$$
MIZ043>046-050>051-056>058-064>065-071>073-077>080-231700-
SOUTHWEST LOWER MICHIGAN

CITY           SKY/WX    TMP DP  RH WIND       PRES   REMARKS
BATTLE CREEK   SUNNY     85  68  56 N6        30.02S
BENTON HARBOR  PTSUNNY   85  74  69 W6        30.00R HX  92
BIG RAPIDS     SUNNY     86  63  45 CALM      30.01S
COLDWATER      SUNNY     83  62  48 CALM      30.02S
FREMONT        FAIR      88  64  43 NE3       30.00R
HOLLAND        SUNNY     89  72  56 NW5       30.01R HX  96
GRAND RAPIDS   MOSUNNY   87  65  47 VRB6      30.01R
IONIA          FAIR      87  64  46 CALM      30.00R
KALAMAZOO      SUNNY     88  68  51 E6        30.01S HX  91
LUDINGTON      SUNNY     86  67  53 CALM      29.97F
MARSHALL       SUNNY     86  68  54 CALM      30.01F
MOUNT PLEASANT SUNNY     88  62  42 CALM      29.99S
MUSKEGON       MOSUNNY   89  72  56 W6        29.99R HX  96
SOUTH HAVEN    PTSUNNY   88  73  60 NW6       30.01R HX  94
$$
MIZ016>042-231700-
NORTHERN LOWER MICHIGAN

CITY           SKY/WX    TMP DP  RH WIND       PRES   REMARKS
ALPENA         SUNNY     87  56  34 N9        30.01R
BEAVER ISLAND  MOSUNNY   82  59  45 SE5       29.99F
BELLAIRE       SUNNY     85  63  47 CALM      29.99F
CADILLAC       SUNNY     86  56  35 N6        30.02S
CHARLEVOIX     SUNNY     82  67  61 NW5       30.02F
FRANKFORT      SUNNY     87  56  34 E5        29.98F
GAYLORD        SUNNY     84  58  40 NE9       30.03S
GRAYLING       SUNNY     87  58  36 N9        30.03S
HARBOR SPRINGS SUNNY     78  69  72 CALM      30.00S
HOUGHTON LAKE  SUNNY     87  57  35 VRB7      30.02S
MANISTEE       SUNNY     88  60  38 VRB3      29.98S
OSCODA         SUNNY     87  57  35 NW7       29.98S
PELLSTON       SUNNY     85  59  41 CALM      30.00S
ROGERS CITY    SUNNY     78  57  48 N6        30.02S
TRAVERSE CITY  MOSUNNY   84  62  47 NE8       29.97F
$$
MIZ007>008-015-231700-
EASTERN UPPER MICHIGAN

CITY           SKY/WX    TMP DP  RH WIND       PRES   REMARKS
KINROSS        SUNNY     80  60  50 VRB3      30.00R
MACKINAC ISLAN SUNNY     79  62  54 SW3       30.01R
NEWBERRY       SUNNY     81  62  51 N3        29.99F
S. S. MARIE    SUNNY     81  64  56 W5        29.98R
MUNISING         N/A     76  65  68 NE5       29.98F
$$
MIZ004>006-011>014-085-231700-
CENTRAL UPPER MICHIGAN

CITY           SKY/WX    TMP DP  RH WIND       PRES   REMARKS
MANISTIQUE     SUNNY     78  65  63 E6        29.99F
ESCANABA       SUNNY     82  61  47 E9        29.96F
MENOMINEE      SUNNY     79  62  56 E9        29.99S
SAWYER-GWINN   SUNNY     77  59  53 E8        30.01F
$$
MIZ001>003-009>011-084-231700-
WESTERN UPPER MICHIGAN

CITY           SKY/WX    TMP DP  RH WIND       PRES   REMARKS
IRON MOUNTAIN  SUNNY     85  57  38 N5        29.98F
HOUGHTON       SUNNY     74  61  63 SE12      30.00F
COPPER HARBOR    N/A     69  60  73 E5        30.00F
IRONWOOD       MOSUNNY   82  61  47 E10       29.93F
$$

ABBREVIATIONS USED IN REMARKS
   TC - TEMPERATURE IN CELSIUS
  WCI - WIND CHILL INDEX
   HX - HEAT INDEX
  VSB - VISIBILITY





USA.gov is the U.S. government's official web portal to all federal, state and local government web resources and services.